TNO5555 YMHB-YMMB

Flight info

Callsign TNO5555
Flight time 0h 49m
Altitude 36000
Route LATUM H111 LT H215 ONAGI DCT MMBNF DCT MMBNM
Aircraft A20N/M-SDE2E3FGHIRWXY/LB1

Departure

Time 2026-04-20 23:56
Airport Hobart International Airport (YMHB)

Arrival

Time 2026-04-21 00:45
Airport Melbourne Moorabbin Airport (YMMB)
Time Latitude Longitude Altitude Speed Heading
2026-04-20 23:49 -42.83748 147.50688 27 ft 0 kts 172°
2026-04-20 23:50 -42.83742 147.50686 25 ft 3 kts 145°
2026-04-20 23:50 -42.83733 147.50668 25 ft 3 kts 74°
2026-04-20 23:50 -42.83733 147.50667 25 ft 0 kts 71°
2026-04-20 23:51 -42.83719 147.50729 23 ft 9 kts 79°
2026-04-20 23:51 -42.83714 147.50790 25 ft 4 kts 85°
2026-04-20 23:52 -42.83681 147.50868 26 ft 11 kts 83°
2026-04-20 23:52 -42.83693 147.50924 26 ft 7 kts 131°
2026-04-20 23:52 -42.83803 147.51065 28 ft 27 kts 137°
2026-04-20 23:52 -42.83819 147.51255 26 ft 23 kts 50°
2026-04-20 23:53 -42.83803 147.51436 20 ft 21 kts 135°
2026-04-20 23:53 -42.83907 147.51572 20 ft 20 kts 135°
2026-04-20 23:53 -42.84006 147.51708 19 ft 20 kts 135°
2026-04-20 23:53 -42.84101 147.51833 24 ft 18 kts 136°
2026-04-20 23:54 -42.84190 147.51947 24 ft 17 kts 137°
2026-04-20 23:54 -42.84275 147.52054 25 ft 16 kts 136°
2026-04-20 23:54 -42.84354 147.52158 26 ft 17 kts 136°
2026-04-20 23:54 -42.84441 147.52271 23 ft 17 kts 141°
2026-04-20 23:55 -42.84543 147.52334 22 ft 16 kts 153°
2026-04-20 23:55 -42.84541 147.52423 18 ft 13 kts 353°
2026-04-20 23:55 -42.84405 147.52227 21 ft 62 kts 315°
2026-04-20 23:55 -42.83901 147.51539 21 ft 143 kts 321°
2026-04-20 23:56 -42.83135 147.50557 668 ft 160 kts 316°
2026-04-20 23:56 -42.82263 147.49384 1141 ft 199 kts 319°
2026-04-20 23:56 -42.81229 147.47980 1864 ft 219 kts 316°
2026-04-20 23:56 -42.80134 147.46486 2474 ft 243 kts 317°
2026-04-20 23:57 -42.79073 147.45029 3269 ft 251 kts 317°
2026-04-20 23:57 -42.77835 147.43326 4298 ft 255 kts 317°
2026-04-20 23:57 -42.76580 147.41601 5329 ft 259 kts 316°
2026-04-20 23:57 -42.75297 147.39840 6318 ft 263 kts 316°
2026-04-20 23:58 -42.74004 147.38067 7327 ft 266 kts 317°
2026-04-20 23:58 -42.72687 147.36265 8189 ft 272 kts 316°
2026-04-20 23:58 -42.71355 147.34443 8999 ft 280 kts 316°
2026-04-20 23:58 -42.69966 147.32543 9851 ft 286 kts 316°
2026-04-20 23:59 -42.68547 147.30604 10667 ft 293 kts 316°
2026-04-20 23:59 -42.67058 147.28571 11085 ft 315 kts 316°
2026-04-20 23:59 -42.65456 147.26387 11442 ft 336 kts 315°
2026-04-20 23:59 -42.63779 147.24099 12098 ft 346 kts 315°
2026-04-21 00:00 -42.62048 147.21775 12885 ft 352 kts 317°
2026-04-21 00:00 -42.60043 147.19838 13663 ft 358 kts 334°
2026-04-21 00:00 -42.57647 147.18878 14432 ft 363 kts 354°
2026-04-21 00:00 -42.55155 147.19118 15076 ft 368 kts 15°
2026-04-21 00:01 -42.52814 147.20538 15773 ft 372 kts 32°
2026-04-21 00:01 -42.50633 147.22471 16469 ft 377 kts 35°
2026-04-21 00:01 -42.48468 147.24507 17192 ft 381 kts 36°
2026-04-21 00:01 -42.46293 147.26592 17891 ft 385 kts 36°
2026-04-21 00:02 -42.44091 147.28698 18596 ft 390 kts 36°
2026-04-21 00:02 -42.41858 147.30820 19179 ft 395 kts 36°
2026-04-21 00:02 -42.39586 147.32970 19750 ft 400 kts 36°
2026-04-21 00:02 -42.37294 147.35133 20350 ft 404 kts 36°
2026-04-21 00:03 -42.34907 147.37183 20939 ft 409 kts 28°
2026-04-21 00:03 -42.32294 147.38563 21481 ft 413 kts 14°
2026-04-21 00:03 -42.29427 147.39018 22028 ft 417 kts 358°
2026-04-21 00:03 -42.26537 147.38599 22594 ft 420 kts 349°
2026-04-21 00:04 -42.23645 147.37909 23127 ft 425 kts 348°
2026-04-21 00:04 -42.20731 147.37167 23679 ft 428 kts 346°
2026-04-21 00:04 -42.17850 147.36070 24209 ft 430 kts 339°
2026-04-21 00:04 -42.15046 147.34650 24673 ft 433 kts 336°
2026-04-21 00:05 -42.12260 147.33062 25152 ft 435 kts 334°
2026-04-21 00:05 -42.09493 147.31410 25619 ft 437 kts 334°
2026-04-21 00:05 -42.06707 147.29736 26074 ft 440 kts 334°
2026-04-21 00:05 -42.03939 147.28089 26507 ft 442 kts 334°
2026-04-21 00:06 -42.01106 147.26429 26943 ft 445 kts 334°
2026-04-21 00:06 -41.98260 147.24783 27371 ft 447 kts 334°
2026-04-21 00:06 -41.95386 147.23136 27786 ft 450 kts 334°
2026-04-21 00:06 -41.92496 147.21490 28191 ft 452 kts 334°
2026-04-21 00:07 -41.89590 147.19838 28595 ft 455 kts 334°
2026-04-21 00:07 -41.86666 147.18179 28997 ft 457 kts 334°
2026-04-21 00:07 -41.83729 147.16514 29398 ft 460 kts 334°
2026-04-21 00:07 -41.80816 147.14863 29760 ft 462 kts 334°
2026-04-21 00:08 -41.77850 147.13182 30150 ft 464 kts 334°
2026-04-21 00:08 -41.74866 147.11493 30507 ft 466 kts 334°
2026-04-21 00:08 -41.71879 147.09804 30877 ft 467 kts 334°
2026-04-21 00:08 -41.68898 147.08120 31293 ft 466 kts 334°
2026-04-21 00:09 -41.65908 147.06433 31713 ft 465 kts 334°
2026-04-21 00:09 -41.62933 147.04754 32071 ft 462 kts 334°
2026-04-21 00:09 -41.59987 147.03063 32129 ft 462 kts 333°
2026-04-21 00:10 -41.54475 146.99898 32227 ft 464 kts 334°
2026-04-21 00:10 -41.51503 146.98217 32391 ft 464 kts 334°
2026-04-21 00:10 -41.48528 146.96549 32567 ft 464 kts 334°
2026-04-21 00:10 -41.45550 146.94886 32757 ft 463 kts 334°
2026-04-21 00:11 -41.42578 146.93230 32949 ft 463 kts 334°
2026-04-21 00:11 -41.39613 146.91576 33128 ft 462 kts 334°
2026-04-21 00:11 -41.36647 146.89922 33303 ft 462 kts 334°
2026-04-21 00:11 -41.33684 146.88270 33544 ft 460 kts 334°
2026-04-21 00:12 -41.30738 146.86628 33730 ft 460 kts 334°
2026-04-21 00:12 -41.27827 146.85006 33873 ft 460 kts 334°
2026-04-21 00:12 -41.24873 146.83361 33986 ft 461 kts 334°
2026-04-21 00:12 -41.21915 146.81716 34144 ft 461 kts 334°
2026-04-21 00:13 -41.18957 146.80073 34315 ft 460 kts 334°
2026-04-21 00:13 -41.16004 146.78434 34477 ft 460 kts 334°
2026-04-21 00:13 -41.13055 146.76799 34651 ft 458 kts 334°
2026-04-21 00:13 -41.10122 146.75169 34752 ft 456 kts 334°
2026-04-21 00:14 -41.07192 146.73535 34756 ft 457 kts 334°
2026-04-21 00:14 -41.01349 146.70289 34790 ft 460 kts 334°
2026-04-21 00:14 -40.98400 146.68669 34919 ft 459 kts 334°
2026-04-21 00:15 -40.95448 146.67052 35071 ft 458 kts 334°
2026-04-21 00:15 -40.92507 146.65442 35236 ft 457 kts 334°
2026-04-21 00:15 -40.89564 146.63839 35516 ft 456 kts 334°
2026-04-21 00:15 -40.86633 146.62251 35802 ft 455 kts 334°
2026-04-21 00:16 -40.83704 146.60661 36073 ft 455 kts 334°
2026-04-21 00:16 -40.80781 146.59070 36326 ft 454 kts 334°
2026-04-21 00:16 -40.77899 146.57495 36470 ft 457 kts 334°
2026-04-21 00:17 -40.72025 146.54282 36458 ft 456 kts 334°
2026-04-21 00:17 -40.66179 146.51087 36463 ft 454 kts 334°
2026-04-21 00:18 -40.60342 146.47903 36465 ft 454 kts 334°
2026-04-21 00:18 -40.54540 146.44743 36466 ft 454 kts 334°
2026-04-21 00:19 -40.48691 146.41565 36464 ft 455 kts 334°
2026-04-21 00:19 -40.42853 146.38399 36452 ft 454 kts 334°
2026-04-21 00:20 -40.37011 146.35237 36456 ft 454 kts 334°
2026-04-21 00:20 -40.31205 146.32100 36442 ft 454 kts 334°
2026-04-21 00:21 -40.25358 146.28947 36448 ft 454 kts 334°
2026-04-21 00:21 -40.19520 146.25805 36446 ft 454 kts 334°
2026-04-21 00:22 -40.13676 146.22665 36441 ft 454 kts 334°
2026-04-21 00:22 -40.07872 146.19553 36441 ft 454 kts 334°
2026-04-21 00:23 -40.02018 146.16419 36441 ft 455 kts 334°
2026-04-21 00:23 -39.96165 146.13292 36438 ft 455 kts 334°
2026-04-21 00:24 -39.90303 146.10167 36425 ft 455 kts 335°
2026-04-21 00:24 -39.84492 146.07074 36436 ft 454 kts 335°
2026-04-21 00:25 -39.78640 146.03964 36429 ft 455 kts 335°
2026-04-21 00:25 -39.72785 146.00859 36426 ft 455 kts 335°
2026-04-21 00:26 -39.66925 145.97757 36421 ft 455 kts 334°
2026-04-21 00:26 -39.61107 145.94683 36419 ft 454 kts 335°
2026-04-21 00:27 -39.55247 145.91593 36419 ft 454 kts 334°
2026-04-21 00:27 -39.49394 145.88512 36413 ft 454 kts 335°
2026-04-21 00:28 -39.43534 145.85432 36411 ft 454 kts 334°
2026-04-21 00:28 -39.37684 145.82363 36411 ft 454 kts 335°
2026-04-21 00:29 -39.31863 145.79315 36415 ft 454 kts 335°
2026-04-21 00:29 -39.26001 145.76251 35587 ft 457 kts 335°
2026-04-21 00:29 -39.23034 145.74700 34754 ft 464 kts 335°
2026-04-21 00:30 -39.20024 145.73128 33907 ft 469 kts 335°
2026-04-21 00:30 -39.16989 145.71546 33082 ft 472 kts 335°
2026-04-21 00:30 -39.13939 145.69959 32259 ft 475 kts 335°
2026-04-21 00:30 -39.10907 145.68382 31408 ft 478 kts 335°
2026-04-21 00:31 -39.07819 145.66779 30787 ft 477 kts 335°
2026-04-21 00:31 -39.04755 145.65190 30154 ft 474 kts 335°
2026-04-21 00:31 -39.01702 145.63608 29486 ft 472 kts 336°
2026-04-21 00:31 -38.98671 145.62038 28859 ft 468 kts 335°
2026-04-21 00:32 -38.95654 145.60477 28235 ft 465 kts 336°
2026-04-21 00:32 -38.92703 145.58952 27610 ft 463 kts 336°
2026-04-21 00:32 -38.89678 145.57391 26964 ft 461 kts 336°
2026-04-21 00:32 -38.86763 145.55888 26409 ft 457 kts 336°
2026-04-21 00:33 -38.83826 145.54374 25918 ft 452 kts 336°
2026-04-21 00:33 -38.80920 145.52877 25140 ft 447 kts 336°
2026-04-21 00:33 -38.78066 145.51380 24423 ft 440 kts 334°
2026-04-21 00:33 -38.75319 145.49695 23499 ft 436 kts 332°
2026-04-21 00:34 -38.72588 145.47977 22089 ft 441 kts 332°
2026-04-21 00:34 -38.69811 145.46211 20592 ft 449 kts 332°
2026-04-21 00:34 -38.67032 145.44433 19171 ft 455 kts 332°
2026-04-21 00:34 -38.64201 145.42619 17873 ft 454 kts 332°
2026-04-21 00:35 -38.61397 145.40823 16756 ft 447 kts 332°
2026-04-21 00:35 -38.58640 145.39056 15726 ft 439 kts 332°
2026-04-21 00:35 -38.55942 145.37327 14678 ft 431 kts 332°
2026-04-21 00:35 -38.53269 145.35614 13411 ft 427 kts 332°
2026-04-21 00:36 -38.50627 145.33920 12146 ft 421 kts 332°
2026-04-21 00:36 -38.48063 145.32275 11469 ft 403 kts 332°
2026-04-21 00:36 -38.45630 145.30722 11120 ft 379 kts 332°
2026-04-21 00:36 -38.43373 145.29276 10811 ft 357 kts 332°
2026-04-21 00:37 -38.41219 145.27898 10543 ft 337 kts 332°
2026-04-21 00:37 -38.39178 145.26597 10316 ft 318 kts 332°
2026-04-21 00:37 -38.37252 145.25371 10003 ft 302 kts 333°
2026-04-21 00:37 -38.35438 145.24217 9753 ft 281 kts 332°
2026-04-21 00:38 -38.33693 145.23107 8977 ft 285 kts 332°
2026-04-21 00:38 -38.31898 145.21963 8254 ft 288 kts 332°
2026-04-21 00:38 -38.30145 145.20850 7929 ft 276 kts 333°
2026-04-21 00:38 -38.28445 145.19769 7133 ft 282 kts 333°
2026-04-21 00:39 -38.26692 145.18655 6634 ft 276 kts 332°
2026-04-21 00:39 -38.25022 145.17596 6411 ft 260 kts 333°
2026-04-21 00:39 -38.23947 145.16913 6280 ft 250 kts 333°
2026-04-21 00:39 -38.21983 145.15668 5994 ft 229 kts 332°
2026-04-21 00:40 -38.20558 145.14764 5422 ft 229 kts 332°
2026-04-21 00:40 -38.19133 145.13860 4862 ft 229 kts 333°
2026-04-21 00:40 -38.17711 145.12958 4317 ft 227 kts 333°
2026-04-21 00:40 -38.16301 145.12079 3846 ft 221 kts 335°
2026-04-21 00:41 -38.14899 145.11547 3619 ft 208 kts 349°
2026-04-21 00:41 -38.13446 145.11331 3041 ft 212 kts 354°
2026-04-21 00:41 -38.12008 145.11204 2739 ft 201 kts 355°
2026-04-21 00:41 -38.10662 145.11096 2583 ft 187 kts 355°
2026-04-21 00:42 -38.09340 145.10988 2399 ft 189 kts 355°
2026-04-21 00:42 -38.08086 145.10883 2271 ft 170 kts 355°
2026-04-21 00:42 -38.06930 145.10784 1883 ft 169 kts 355°
2026-04-21 00:42 -38.05716 145.10677 1444 ft 172 kts 356°
2026-04-21 00:43 -38.04596 145.10579 1300 ft 154 kts 357°
2026-04-21 00:43 -38.03587 145.10490 1093 ft 139 kts 358°
2026-04-21 00:43 -38.02640 145.10411 835 ft 134 kts 358°
2026-04-21 00:43 -38.01709 145.10330 677 ft 134 kts 357°
2026-04-21 00:44 -38.00776 145.10248 528 ft 134 kts 356°
2026-04-21 00:44 -37.99845 145.10171 349 ft 134 kts 357°
2026-04-21 00:44 -37.98918 145.10092 161 ft 132 kts 356°
2026-04-21 00:45 -37.97553 145.09963 58 ft 28 kts 356°
2026-04-21 00:45 -37.97508 145.09957 57 ft 1 kts 334°
2026-04-21 00:45 -37.97545 145.09945 58 ft 17 kts 156°
2026-04-21 00:45 -37.97623 145.09973 57 ft 18 kts 166°
2026-04-21 00:46 -37.97755 145.09914 54 ft 16 kts 250°
2026-04-21 00:46 -37.97769 145.09770 54 ft 17 kts 265°
2026-04-21 00:46 -37.97775 145.09670 54 ft 16 kts 270°
2026-04-21 00:46 -37.97732 145.09574 55 ft 12 kts 350°
2026-04-21 00:47 -37.97633 145.09570 54 ft 9 kts 352°
2026-04-21 00:47 -37.97615 145.09549 54 ft 3 kts 301°
2026-04-21 00:47 -37.97614 145.09546 54 ft 0 kts 298°